Regional Weather Roundup
Issued by NWS State College, PA

Home | Current Version | Previous Version | Text Only | Print | Product List | Glossary Off
Versions: 1 2 3 4 5 6 7 8 9 10 11 12 13 14 15 16 17 18 19 20 21 22 23 24 25 26 27 28 29 30 31 32 33 34 35 36 37 38 39 40 41 42 43 44 45 46 47 48 49 50

000
ASUS41 KCTP 080510
RWRCTP

REGIONAL WEATHER ROUNDUP
NATIONAL WEATHER SERVICE STATE COLLEGE PA
1200 AM EST THU DEC 08 2016

Note: "fair" indicates few or no clouds below 12,000 feet with no
significant weather and/or obstructions to visibility.

* = STATION THAT DOES NOT REPORT PRECIPITATION /E.G. RAIN...SNOW...ETC/
    THUNDER OR FOG.

PAZ002>004-007>009-013>016-020>023-029>032-080600-
WESTERN PENNSYLVANIA

CITY           SKY/WX    TMP DP  RH WIND       PRES   REMARKS
ERIE           CLOUDY    35  23  61 SW17      30.00S
MEADVILLE      CLOUDY    31  21  66 SW6       30.00R
FRANKLIN*        N/A     30  19  64 SW9       30.02R
NEW CASTLE     CLOUDY    33  24  69 SW8       30.04F
BEAVER COUNTY  NOT AVBL
BUTLER*        PTCLDY    32  19  59 W6        30.06S
PITTSBURGH INT CLOUDY    35  22  58 W3        30.04F
PITTSBURGH     CLOUDY    35  19  52 W7        30.04S
INDIANA*       CLOUDY    30  27  86 CALM      30.06S
LATROBE        CLOUDY    34  23  64 S5        30.06S
WASHINGTON CO* MOCLDY    34  19  55 W9        30.06S
$$

PAZ004>006-010>012-017>019-024>028-033>037-041-042-045-046-049>053-080600-
CENTRAL PENNSYLVANIA

CITY           SKY/WX    TMP DP  RH WIND       PRES   REMARKS
BRADFORD       PTCLDY    29  21  72 SW6       29.94F
DUBOIS         CLOUDY    27  19  72 SW5       29.98F
CLEARFIELD     CLEAR     29  23  78 S5        30.00F
JOHNSTOWN      CLOUDY    32  18  56 SW12      29.99S
ALTOONA        CLOUDY    34  22  61 SW8       30.02F
STATE COLLEGE  MOCLDY    34  23  63 SW6       30.01F
WILLIAMSPORT   CLOUDY    37  29  72 NW7       30.02F
SELINSGROVE    CLOUDY    38  26  62 SW5       30.03F
FT INDIANTOWN  CLOUDY    36  28  72 S2        30.02F
CAPITAL CITY   MOCLDY    38  22  52 W7        30.04F
HARRISBURG     CLOUDY    37  24  59 NW6       30.03F
YORK           CLOUDY    31  27  85 CALM      30.03F
$$

PAZ038>040-043-044-047-048-054-055-060>062-067>071-080600-
EASTERN PENNSYLVANIA

CITY           SKY/WX    TMP DP  RH WIND       PRES   REMARKS
SCRANTON       CLOUDY    39  26  59 SW7       29.98S
MOUNT POCONO   CLOUDY    32  25  75 W8        29.95F
ALLENTOWN      PTCLDY    35  29  78 W3        30.02F
QUAKERTOWN*    PTCLDY    30  30 100 CALM      30.02F
READING        PTCLDY    34  31  88 CALM      30.02F
LANCASTER      CLOUDY    33  31  92 CALM      30.03F
COATESVILLE    PTCLDY    30  27  86 W5        30.03F
POTTSTOWN      CLOUDY    30  28  92 CALM      30.04F
BLUE BELL      CLOUDY    30  30 100 CALM      30.02F
DOYLESTOWN     CLOUDY    35  31  85 SW3       30.01F
WILLOW GROVE   NOT AVBL
NORTH PHILA    CLOUDY    33  31  92 CALM      30.05F FOG
PHILADELPHIA   CLOUDY    39  33  79 SW6       30.05F
$$



USA.gov is the U.S. government's official web portal to all federal, state and local government web resources and services.